Starlink 35346

operational
NORAD ID: 66179 Int'l Des: 2025-243 Owner: SPXS Country: US Constellation: starlink
LEOCIRCULAR

Starlink 35346について

説明を読み込み中...

リアルタイム位置

3D地球を読み込み中...

次回通過

高度履歴

Altitude vs Time

uPlot chart will show altitude changes over time

軌道要素

1 66179U 25243C 25348.20478404 .00029673 00000-0 10108-2 0 9995
2 66179 53.1606 282.4626 0001097 99.7379 260.3746 15.30173578 7569
Epoch: Dec 14, 2025 • Age: 41 hours

現在のステータス

高度 474.7 km
速度 7.63 km/s
衛星直下点 14.49°N, 22.9°E
打ち上げ日 Oct 26, 2025
運用期間 0.1 years
タイプ internet

技術仕様

分類 Payload
質量 575.00 kg
乾燥質量 530.00 kg
総質量 575.00 kg
長さ 0.30 m
直径 4.10 m
スパン 29.00 m
形状 Box + pan
製造者 SPXS
バスタイプ Starlink V2MO
フェーズステータス In Orbit
所有者/国 SPXS/US

大規模コンステレーション

Loading constellations...